| time (UTC) | temp F | wind direction | speed knots | gust knots | rain 1hr in | rain 24hr in | rain mn in | humidity % | barometer mb |
| 20260505035532 | 63 | 290 | 0.0 | 0.0 | 0.00 | 0.00 | 0.00 | 44 | 1008.4 |
| 20260505035317 | 64 | 290 | 0.0 | 0.0 | 0.00 | 0.00 | 0.00 | 43 | 1008.4 |
| 20260505034530 | 64 | 290 | 0.0 | 0.0 | 0.00 | 0.00 | 0.00 | 42 | 1008.5 |
| 20260505034319 | 65 | 290 | 0.0 | 1.7 | 0.00 | 0.00 | 0.00 | 42 | 1008.4 |
| 20260505033531 | 65 | 290 | 0.0 | 1.7 | 0.00 | 0.00 | 0.00 | 40 | 1008.2 |
| 20260505033032 | 66 | 290 | 0.0 | 0.0 | 0.00 | 0.00 | 0.00 | 40 | 1008.1 |
| 20260505032531 | 67 | 290 | 0.0 | 0.0 | 0.00 | 0.00 | 0.00 | 39 | 1008.1 |
| 20260505032033 | 67 | 290 | 0.0 | 0.9 | 0.00 | 0.00 | 0.00 | 38 | 1008.0 |
| 20260505031531 | 67 | 290 | 0.0 | 1.7 | 0.00 | 0.00 | 0.00 | 37 | 1008.0 |
| 20260505031110 | 68 | 292 | 0.0 | 1.7 | 0.00 | 0.00 | 0.00 | 37 | 1007.9 |
| 20260505031056 | 68 | 238 | 0.0 | 1.7 | 0.00 | 0.00 | 0.00 | 37 | 1007.9 |
| 20260505030031 | 68 | 227 | 0.0 | 1.7 | 0.00 | 0.00 | 0.00 | 35 | 1007.9 |
| 20260505025531 | 69 | 210 | 0.0 | 1.7 | 0.00 | 0.00 | 0.00 | 36 | 1007.8 |
| 20260505025031 | 69 | 293 | 0.9 | 1.7 | 0.00 | 0.00 | 0.00 | 35 | 1007.8 |
| 20260505024532 | 69 | 252 | 0.0 | 1.7 | 0.00 | 0.00 | 0.00 | 35 | 1007.8 |
| 20260505024031 | 70 | 196 | 0.0 | 1.7 | 0.00 | 0.00 | 0.00 | 36 | 1007.8 |
| 20260505023533 | 70 | 272 | 0.0 | 1.7 | 0.00 | 0.00 | 0.00 | 35 | 1007.7 |
| 20260505023032 | 70 | 220 | 0.0 | 2.6 | 0.00 | 0.00 | 0.00 | 35 | 1007.7 |
| 20260505022531 | 71 | 206 | 0.0 | 2.6 | 0.00 | 0.00 | 0.00 | 35 | 1007.6 |
| 20260505022031 | 71 | 300 | 0.9 | 1.7 | 0.00 | 0.00 | 0.00 | 34 | 1007.6 |
| 20260505021532 | 71 | 265 | 0.0 | 3.5 | 0.00 | 0.00 | 0.00 | 33 | 1007.7 |
| 20260505021032 | 71 | 166 | 0.0 | 3.5 | 0.00 | 0.00 | 0.00 | 33 | 1007.7 |
| 20260505020531 | 72 | 228 | 0.9 | 4.3 | 0.00 | 0.00 | 0.00 | 32 | 1007.6 |
| 20260505020031 | 72 | 316 | 1.7 | 4.3 | 0.00 | 0.00 | 0.00 | 32 | 1007.5 |
| 20260505015530 | 72 | 200 | 0.9 | 2.6 | 0.00 | 0.00 | 0.00 | 32 | 1007.5 |
| 20260505015031 | 73 | 266 | 0.0 | 3.5 | 0.00 | 0.00 | 0.00 | 32 | 1007.4 |
| 20260505014532 | 73 | 283 | 0.9 | 3.5 | 0.00 | 0.00 | 0.00 | 30 | 1007.4 |
| 20260505014402 | 73 | 286 | 1.7 | 3.5 | 0.00 | 0.00 | 0.00 | 31 | 1007.6 |
| 20260505014356 | 73 | 199 | 0.9 | 3.5 | 0.00 | 0.00 | 0.00 | 30 | 1007.5 |
| 20260505013031 | 73 | 193 | 0.9 | 3.5 | 0.00 | 0.00 | 0.00 | 30 | 1007.5 |
| 20260505012531 | 73 | 320 | 0.0 | 5.2 | 0.00 | 0.00 | 0.00 | 30 | 1007.5 |
| 20260505012317 | 74 | 316 | 0.0 | 5.2 | 0.00 | 0.00 | 0.00 | 30 | 1007.5 |
| 20260505011533 | 74 | 0 | 0.0 | 4.3 | 0.00 | 0.00 | 0.00 | 31 | 1007.6 |
| 20260505011029 | 74 | 213 | 1.7 | 4.3 | 0.00 | 0.00 | 0.00 | 31 | 1007.7 |
| 20260505010529 | 74 | 279 | 0.9 | 4.3 | 0.00 | 0.00 | 0.00 | 31 | 1007.6 |
| 20260505010031 | 74 | 296 | 0.9 | 2.6 | 0.00 | 0.00 | 0.00 | 32 | 1007.6 |
| 20260505005530 | 74 | 289 | 0.0 | 4.3 | 0.00 | 0.00 | 0.00 | 32 | 1007.6 |
| 20260505005029 | 74 | 230 | 1.7 | 4.3 | 0.00 | 0.00 | 0.00 | 32 | 1007.5 |
| 20260505004529 | 74 | 288 | 0.9 | 4.3 | 0.00 | 0.00 | 0.00 | 32 | 1007.6 |
| 20260505004030 | 74 | 302 | 0.9 | 4.3 | 0.00 | 0.00 | 0.00 | 32 | 1007.7 |
| 20260505003529 | 74 | 290 | 0.0 | 4.3 | 0.00 | 0.00 | 0.00 | 32 | 1007.7 |
| 20260505003313 | 75 | 128 | 0.9 | 5.2 | 0.00 | 0.00 | 0.00 | 32 | 1007.7 |
| 20260505002529 | 75 | 251 | 0.9 | 5.2 | 0.00 | 0.00 | 0.00 | 31 | 1007.7 |
| 20260505002029 | 76 | 204 | 1.7 | 6.1 | 0.00 | 0.00 | 0.00 | 32 | 1007.8 |
| 20260505001530 | 76 | 299 | 0.9 | 6.1 | 0.00 | 0.00 | 0.00 | 31 | 1007.8 |
| 20260505001029 | 76 | 269 | 1.7 | 9.6 | 0.00 | 0.00 | 0.00 | 31 | 1007.7 |
| 20260505000820 | 76 | 241 | 0.9 | 9.6 | 0.00 | 0.00 | 0.00 | 31 | 1007.8 |
| 20260505000029 | 77 | 252 | 1.7 | 5.2 | 0.00 | 0.00 | 0.00 | 31 | 1007.7 |
| 20260504235529 | 77 | 241 | 1.7 | 3.5 | 0.00 | 0.00 | 0.00 | 30 | 1007.7 |
| 20260504235322 | 77 | 226 | 1.7 | 6.1 | 0.00 | 0.00 | 0.00 | 30 | 1007.8 |
| 20260504234528 | 77 | 176 | 1.7 | 6.1 | 0.00 | 0.00 | 0.00 | 30 | 1007.7 |
| 20260504234026 | 77 | 306 | 0.9 | 6.1 | 0.00 | 0.00 | 0.00 | 29 | 1007.7 |
| 20260504233524 | 77 | 171 | 0.9 | 5.2 | 0.00 | 0.00 | 0.00 | 29 | 1007.6 |
| 20260504233025 | 77 | 23 | 1.7 | 4.3 | 0.00 | 0.00 | 0.00 | 29 | 1007.7 |
| 20260504232524 | 77 | 182 | 0.0 | 4.3 | 0.00 | 0.00 | 0.00 | 30 | 1007.8 |
| 20260504232018 | 77 | 247 | 0.9 | 2.6 | 0.00 | 0.00 | 0.00 | 30 | 1007.7 |
| 20260504231519 | 76 | 230 | 0.9 | 2.6 | 0.00 | 0.00 | 0.00 | 32 | 1007.7 |
| 20260504231019 | 76 | 155 | 0.0 | 5.2 | 0.00 | 0.00 | 0.00 | 30 | 1007.7 |
| 20260504230518 | 77 | 257 | 0.9 | 5.2 | 0.00 | 0.00 | 0.00 | 30 | 1007.8 |
| 20260504230019 | 76 | 310 | 0.9 | 4.3 | 0.00 | 0.00 | 0.00 | 32 | 1007.8 |
| 20260504225517 | 76 | 295 | 0.9 | 4.3 | 0.00 | 0.00 | 0.00 | 32 | 1007.9 |
| 20260504225259 | 76 | 285 | 0.0 | 2.6 | 0.00 | 0.00 | 0.00 | 32 | 1007.9 |
| 20260504224515 | 75 | 172 | 0.9 | 2.6 | 0.00 | 0.00 | 0.00 | 32 | 1008.0 |
| 20260504224302 | 76 | 180 | 0.9 | 3.5 | 0.00 | 0.00 | 0.00 | 32 | 1008.0 |
| 20260504223507 | 75 | 179 | 0.0 | 4.3 | 0.00 | 0.00 | 0.00 | 32 | 1008.0 |
| 20260504223252 | 75 | 178 | 0.9 | 4.3 | 0.00 | 0.00 | 0.00 | 32 | 1008.1 |
| 20260504222508 | 75 | 193 | 0.9 | 3.5 | 0.00 | 0.00 | 0.00 | 33 | 1008.2 |
| 20260504222002 | 76 | 173 | 0.9 | 2.6 | 0.00 | 0.00 | 0.00 | 34 | 1008.1 |
| 20260504221503 | 76 | 233 | 0.0 | 2.6 | 0.00 | 0.00 | 0.00 | 34 | 1008.2 |
| 20260504221003 | 76 | 237 | 0.0 | 2.6 | 0.00 | 0.00 | 0.00 | 35 | 1008.1 |
| 20260504220502 | 76 | 188 | 0.9 | 3.5 | 0.00 | 0.00 | 0.00 | 33 | 1008.2 |
| 20260504220248 | 76 | 281 | 0.9 | 3.5 | 0.00 | 0.00 | 0.00 | 34 | 1008.4 |
| 20260504215501 | 75 | 314 | 0.9 | 1.7 | 0.00 | 0.00 | 0.00 | 34 | 1008.5 |
| 20260504215001 | 75 | 179 | 0.0 | 2.6 | 0.00 | 0.00 | 0.00 | 34 | 1008.4 |
| 20260504214748 | 75 | 200 | 0.0 | 2.6 | 0.00 | 0.00 | 0.00 | 34 | 1008.4 |
| 20260504214003 | 75 | 168 | 0.0 | 1.7 | 0.00 | 0.00 | 0.00 | 35 | 1008.4 |
| 20260504213459 | 75 | 172 | 0.0 | 2.6 | 0.00 | 0.00 | 0.00 | 34 | 1008.4 |
| 20260504213001 | 75 | 169 | 0.0 | 2.6 | 0.00 | 0.00 | 0.00 | 35 | 1008.5 |
| 20260504212459 | 75 | 213 | 0.9 | 2.6 | 0.00 | 0.00 | 0.00 | 35 | 1008.5 |
| 20260504212000 | 76 | 175 | 0.0 | 3.5 | 0.00 | 0.00 | 0.00 | 36 | 1008.5 |
| 20260504211744 | 75 | 186 | 0.9 | 3.5 | 0.00 | 0.00 | 0.00 | 37 | 1008.5 |
| 20260504210958 | 75 | 157 | 0.0 | 3.5 | 0.00 | 0.00 | 0.00 | 36 | 1008.6 |
| 20260504210802 | 75 | 176 | 0.9 | 3.5 | 0.00 | 0.00 | 0.00 | 39 | 1008.6 |
| 20260504210032 | 74 | 244 | 0.9 | 1.7 | 0.00 | 0.00 | 0.00 | 39 | 1008.7 |
| 20260504210019 | 75 | 193 | 0.0 | 3.5 | 0.00 | 0.00 | 0.00 | 38 | 1008.7 |
| 20260504204954 | 74 | 173 | 0.0 | 1.7 | 0.00 | 0.00 | 0.00 | 40 | 1008.8 |
| 20260504204453 | 74 | 171 | 0.0 | 1.7 | 0.00 | 0.00 | 0.00 | 39 | 1008.8 |
| 20260504203954 | 74 | 172 | 0.9 | 1.7 | 0.00 | 0.00 | 0.00 | 38 | 1008.8 |
| 20260504203454 | 74 | 172 | 0.0 | 2.6 | 0.00 | 0.00 | 0.00 | 39 | 1008.8 |
| 20260504202952 | 74 | 180 | 0.9 | 3.5 | 0.00 | 0.00 | 0.00 | 37 | 1008.9 |
| 20260504202451 | 74 | 317 | 0.9 | 3.5 | 0.00 | 0.00 | 0.00 | 38 | 1008.9 |
| 20260504202241 | 74 | 186 | 0.0 | 1.7 | 0.00 | 0.00 | 0.00 | 38 | 1008.9 |
| 20260504201450 | 74 | 178 | 0.0 | 1.7 | 0.00 | 0.00 | 0.00 | 41 | 1009.0 |
| 20260504200951 | 73 | 180 | 0.0 | 1.7 | 0.00 | 0.00 | 0.00 | 40 | 1009.0 |
| 20260504200447 | 73 | 189 | 0.0 | 3.5 | 0.00 | 0.00 | 0.00 | 39 | 1009.0 |
| 20260504195947 | 73 | 178 | 0.0 | 3.5 | 0.00 | 0.00 | 0.00 | 39 | 1009.0 |
| 20260504195448 | 73 | 178 | 0.0 | 1.7 | 0.00 | 0.00 | 0.00 | 38 | 1009.0 |
| 20260504194947 | 73 | 178 | 0.0 | 1.7 | 0.00 | 0.00 | 0.00 | 40 | 1009.0 |
| 20260504194448 | 73 | 233 | 0.0 | 1.7 | 0.00 | 0.00 | 0.00 | 38 | 1009.0 |
| 20260504194232 | 73 | 285 | 0.0 | 2.6 | 0.00 | 0.00 | 0.00 | 37 | 1009.0 |
| 20260504193443 | 72 | 226 | 0.9 | 2.6 | 0.00 | 0.00 | 0.00 | 35 | 1009.1 |
| 20260504192943 | 72 | 212 | 0.0 | 1.7 | 0.00 | 0.00 | 0.00 | 38 | 1009.2 |
| 20260504192443 | 72 | 180 | 0.9 | 2.6 | 0.00 | 0.00 | 0.00 | 36 | 1009.1 |
| 20260504192236 | 71 | 226 | 0.9 | 3.5 | 0.00 | 0.00 | 0.00 | 40 | 1009.1 |
| 20260504191441 | 71 | 173 | 0.9 | 4.3 | 0.00 | 0.00 | 0.00 | 38 | 1009.2 |
| 20260504190943 | 70 | 180 | 0.0 | 4.3 | 0.00 | 0.00 | 0.00 | 40 | 1009.2 |
| 20260504190435 | 70 | 162 | 0.9 | 3.5 | 0.00 | 0.00 | 0.00 | 39 | 1009.2 |
| 20260504185932 | 71 | 204 | 0.0 | 3.5 | 0.00 | 0.00 | 0.00 | 40 | 1009.2 |
| 20260504185431 | 71 | 279 | 0.0 | 2.6 | 0.00 | 0.00 | 0.00 | 40 | 1009.2 |
| 20260504184931 | 71 | 166 | 0.0 | 2.6 | 0.00 | 0.00 | 0.00 | 40 | 1009.2 |
| 20260504184431 | 71 | 183 | 0.0 | 1.7 | 0.00 | 0.00 | 0.00 | 43 | 1009.2 |
| 20260504183930 | 71 | 165 | 0.0 | 1.7 | 0.00 | 0.00 | 0.00 | 40 | 1009.2 |
| 20260504183431 | 71 | 171 | 0.0 | 2.6 | 0.00 | 0.00 | 0.00 | 40 | 1009.2 |
| 20260504182931 | 71 | 180 | 0.9 | 2.6 | 0.00 | 0.00 | 0.00 | 40 | 1009.2 |
| 20260504182429 | 71 | 348 | 0.9 | 2.6 | 0.00 | 0.00 | 0.00 | 40 | 1009.1 |
| 20260504181930 | 72 | 213 | 0.0 | 2.6 | 0.00 | 0.00 | 0.00 | 40 | 1009.2 |
| 20260504181431 | 72 | 278 | 0.9 | 2.6 | 0.00 | 0.00 | 0.00 | 40 | 1009.2 |
| 20260504180931 | 72 | 171 | 0.0 | 1.7 | 0.00 | 0.00 | 0.00 | 39 | 1009.2 |
| 20260504180430 | 72 | 124 | 0.0 | 1.7 | 0.00 | 0.00 | 0.00 | 40 | 1009.2 |
| 20260504175931 | 71 | 0 | 0.9 | 1.7 | 0.00 | 0.00 | 0.00 | 39 | 1009.2 |
| 20260504175713 | 71 | 196 | 0.0 | 1.7 | 0.00 | 0.00 | 0.00 | 41 | 1009.2 |
| 20260504175217 | 71 | 204 | 0.0 | 1.7 | 0.00 | 0.00 | 0.00 | 42 | 1009.3 |
| 20260504174429 | 71 | 158 | 0.0 | 1.7 | 0.00 | 0.00 | 0.00 | 39 | 1009.3 |
| 20260504173930 | 70 | 238 | 0.0 | 1.7 | 0.00 | 0.00 | 0.00 | 41 | 1009.3 |
| 20260504173430 | 70 | 234 | 0.0 | 2.6 | 0.00 | 0.00 | 0.00 | 43 | 1009.3 |
| 20260504172931 | 70 | 145 | 0.0 | 2.6 | 0.00 | 0.00 | 0.00 | 43 | 1009.3 |
| 20260504172430 | 70 | 131 | 0.0 | 2.6 | 0.00 | 0.00 | 0.00 | 41 | 1009.3 |
| 20260504172217 | 70 | 133 | 0.9 | 2.6 | 0.00 | 0.00 | 0.00 | 42 | 1009.3 |
| 20260504171431 | 69 | 120 | 0.0 | 1.7 | 0.00 | 0.00 | 0.00 | 44 | 1009.3 |
| 20260504170931 | 69 | 185 | 0.0 | 3.5 | 0.00 | 0.00 | 0.00 | 44 | 1009.1 |
| 20260504170430 | 69 | 42 | 0.0 | 3.5 | 0.00 | 0.00 | 0.00 | 47 | 1009.3 |
| 20260504170217 | 68 | 161 | 0.9 | 3.5 | 0.00 | 0.00 | 0.00 | 44 | 1009.2 |
| 20260504150930 | 62 | 123 | 0.0 | 1.7 | 0.00 | 0.00 | 0.00 | 49 | 1009.5 |
| 20260504150431 | 62 | 117 | 0.0 | 2.6 | 0.00 | 0.00 | 0.00 | 50 | 1009.5 |
| 20260504140923 | 49 | 316 | 0.0 | 1.7 | 0.00 | 0.00 | 0.00 | 73 | 1009.4 |
| 20260504140504 | 47 | 298 | 0.0 | 1.7 | 0.00 | 0.00 | 0.00 | 75 | 1009.3 |
| 20260504140450 | 48 | 316 | 0.0 | 1.7 | 0.00 | 0.00 | 0.00 | 74 | 1009.4 |
| 20260504130405 | 44 | 220 | 0.0 | 1.7 | 0.00 | 0.00 | 0.00 | 78 | 1008.8 |
| 20260504081913 | 47 | 210 | 0.0 | 0.0 | 0.00 | 0.00 | 0.00 | 73 | 1009.4 |
| 20260504081902 | 47 | 210 | 0.0 | 0.0 | 0.00 | 0.00 | 0.00 | 74 | 1009.4 |
| 20260504080831 | 47 | 210 | 0.0 | 0.0 | 0.00 | 0.00 | 0.00 | 73 | 1009.5 |
| 20260504080330 | 47 | 210 | 0.0 | 0.0 | 0.00 | 0.00 | 0.00 | 72 | 1009.4 |
| 20260504080114 | 47 | 210 | 0.0 | 0.0 | 0.00 | 0.00 | 0.00 | 73 | 1009.4 |
| 20260504070330 | 49 | 210 | 0.0 | 0.0 | 0.00 | 0.00 | 0.00 | 68 | 1009.7 |
| 20260504070119 | 49 | 210 | 0.0 | 0.0 | 0.00 | 0.00 | 0.00 | 68 | 1009.7 |
| 20260504050330 | 55 | 210 | 0.0 | 0.0 | 0.00 | 0.00 | 0.00 | 59 | 1010.2 |
| 20260504045830 | 55 | 210 | 0.0 | 0.0 | 0.00 | 0.00 | 0.00 | 59 | 1010.2 |
| 20260504045330 | 55 | 210 | 0.0 | 0.0 | 0.00 | 0.00 | 0.00 | 58 | 1010.2 |
| 20260504044830 | 56 | 210 | 0.0 | 0.0 | 0.00 | 0.00 | 0.00 | 58 | 1010.2 |
| 20260504044621 | 56 | 210 | 0.0 | 0.0 | 0.00 | 0.00 | 0.00 | 57 | 1010.2 |
| 20260504043831 | 56 | 210 | 0.0 | 0.0 | 0.00 | 0.00 | 0.00 | 56 | 1010.2 |
| 20260504043330 | 57 | 210 | 0.0 | 0.0 | 0.00 | 0.00 | 0.00 | 55 | 1010.2 |
| 20260504042907 | 58 | 210 | 0.0 | 0.0 | 0.00 | 0.00 | 0.00 | 53 | 1010.2 |
| 20260504042854 | 57 | 210 | 0.0 | 0.0 | 0.00 | 0.00 | 0.00 | 54 | 1010.2 |
| 20260504041829 | 58 | 210 | 0.0 | 0.0 | 0.00 | 0.00 | 0.00 | 52 | 1010.2 |
| 20260504041329 | 59 | 209 | 0.0 | 0.0 | 0.00 | 0.00 | 0.00 | 51 | 1010.2 |
| 20260504040830 | 59 | 210 | 0.0 | 0.0 | 0.00 | 0.00 | 0.00 | 50 | 1010.2 |
| 20260504040607 | 60 | 210 | 0.0 | 0.0 | 0.00 | 0.00 | 0.00 | 49 | 1010.2 |
| 20260504035826 | 60 | 210 | 0.0 | 0.0 | 0.00 | 0.00 | 0.00 | 48 | 1010.1 |